This is the latest recevied weather packets stored in our database for station/object SALT. If no packets are shown the sender has not sent any weather packets the latest 10 day(s).
| Time | Temp. | Humidity | Pressure | Rain* | Wind** | Luminosity | Snow |
|---|---|---|---|---|---|---|---|
| 1778368403 | 15.56° C | 43% | 1026.3 hPa | 0 mm | - | - | - |
| 1778367800 | 15.56° C | 43% | 1026.3 hPa | 0 mm | - | - | - |
| 1778367196 | 15° C | 43% | 1026.2 hPa | 0 mm | - | - | - |
| 1778366592 | 15° C | 43% | 1026.3 hPa | 0 mm | - | - | - |
| 1778365991 | 15° C | 44% | 1026.4 hPa | 0 mm | - | - | - |
| 1778365388 | 15° C | 43% | 1026.3 hPa | 0 mm | - | - | - |
| 1778364785 | 15° C | 42% | 1026.5 hPa | 0 mm | - | - | - |
| 1778364181 | 15° C | 43% | 1026.5 hPa | 0 mm | - | - | - |
| 1778363577 | 15.56° C | 43% | 1026.5 hPa | 0 mm | - | - | - |
| 1778362975 | 15° C | 44% | 1026.6 hPa | 0 mm | - | - | - |
| 1778362372 | 15° C | 44% | 1026.8 hPa | 0 mm | - | - | - |
| 1778361769 | 14.44° C | 44% | 1026.8 hPa | 0 mm | - | - | - |
| 1778361166 | 14.44° C | 43% | 1026.8 hPa | 0 mm | - | - | - |
| 1778360562 | 14.44° C | 44% | 1026.9 hPa | 0 mm | - | - | - |
| 1778359959 | 13.89° C | 45% | 1027 hPa | 0 mm | - | - | - |
| 1778359356 | 14.44° C | 43% | 1026.9 hPa | 0 mm | - | - | - |
| 1778358753 | 13.89° C | 43% | 1026.9 hPa | 0 mm | - | - | - |
| 1778358151 | 13.89° C | 45% | 1027 hPa | 0 mm | - | - | - |
| 1778357549 | 13.89° C | 44% | 1027 hPa | 0 mm | - | - | - |
| 1778356944 | 13.33° C | 44% | 1027 hPa | 0 mm | - | - | - |
| 1778356340 | 12.78° C | 44% | 1027.1 hPa | 0 mm | - | - | - |
| 1778355739 | 12.78° C | 45% | 1027.2 hPa | 0 mm | - | - | - |
| 1778355136 | 12.78° C | 46% | 1027.2 hPa | 0 mm | - | - | - |
| 1778354533 | 12.22° C | 46% | 1027.3 hPa | 0 mm | - | - | - |
| 1778353931 | 11.67° C | 46% | 1027.5 hPa | 0 mm | - | - | - |
* Rain latest 24 hours (hover to see other rain measurements)
** Current wind speed in m/s (hover to see current wind gust speed)